Weather History for Findlay, OH

Change the Weather History Date:

Thursday, November 22, 2012

  Actual Average Record
Temperature  
Mean Temperature 49 °F -  
Max Temperature 62 °F 44 °F 68 °F (2010)
Min Temperature 36 °F 30 °F 12 °F (1964)
Degree Days  
Heating Degree Days 16    
Moisture  
Dew Point 39 °F    
Average Humidity 71    
Maximum Humidity 93    
Minimum Humidity 50    
Precipitation  
Precipitation 0.00 in - - ()
Sea Level Pressure  
Sea Level Pressure 30.08 in    
Wind  
Wind Speed 9 mph (South)    
Max Wind Speed 21 mph    
Max Gust Speed -    
Visibility 8 miles    
Events      
Averages and records for this station are not official NWS values.
T = Trace of Precipitation, MM = Missing Value Source: NWS Daily Summary

Daily Weather History Graph

Daily Weather History Graph

Search for Another Location

Airport:

Trip Planner

Search our weather history database for the weather conditions in past years. The results will help you decide how hot, cold, wet, or windy it might be!

Date:

Astronomy

Nov. 22, 2012 Rise Set
Actual Time 7:30 AM EST 5:10 PM EST
Civil Twilight 7:00 AM EST 5:40 PM EST
Nautical Twilight 6:27 AM EST 6:14 PM EST
Astronomical Twilight 5:54 AM EST 6:47 PM EST
Moon 1:58 PM EST (11/22) 1:47 AM EST (11/22)
Length of Visible Light 10h 39m
Length of Day
9h 39m
Waxing Gibbous, 71% of the Moon is Illuminated
Nov 22
Waxing Gibbous
Nov 28
Full
Dec 6
Last Quarter
Dec 13
New
Dec 20
First Quarter

Hourly Weather History & Observations

Time (EST) Temp. Windchill Dew Point Humidity Pressure Visibility Wind Dir Wind Speed Gust Speed Precip Events Conditions
12:53 AM 39.9 °F 35.8 °F 36.0 °F 86% 30.19 in 5.0 mi South 5.8 mph - N/A   Clear
1:53 AM 39.0 °F 34.8 °F 35.1 °F 86% 30.18 in 5.0 mi SSW 5.8 mph - N/A   Clear
2:53 AM 37.9 °F 33.5 °F 35.1 °F 89% 30.18 in 5.0 mi South 5.8 mph - N/A   Clear
3:53 AM 37.9 °F 32.7 °F 35.1 °F 89% 30.17 in 5.0 mi South 6.9 mph - N/A   Clear
4:53 AM 37.9 °F 32.7 °F 35.1 °F 89% 30.17 in 5.0 mi South 6.9 mph - N/A   Clear
5:53 AM 37.9 °F 32.7 °F 35.1 °F 89% 30.17 in 4.0 mi South 6.9 mph - N/A   Clear
6:53 AM 37.0 °F 31.0 °F 34.0 °F 89% 30.17 in 4.0 mi South 8.1 mph - N/A   Clear
7:53 AM 36.0 °F 30.3 °F 34.0 °F 93% 30.17 in 3.0 mi South 6.9 mph - N/A   Clear
8:53 AM 45.0 °F 40.6 °F 39.9 °F 82% 30.17 in 5.0 mi South 8.1 mph - N/A   Haze
9:53 AM 50.0 °F - 42.1 °F 74% 30.17 in 7.0 mi SSW 11.5 mph - N/A   Clear
10:53 AM 55.0 °F - 43.0 °F 64% 30.14 in 8.0 mi South 12.7 mph - N/A   Clear
11:53 AM 59.0 °F - 41.0 °F 51% 30.11 in 10.0 mi SSW 17.3 mph - N/A   Clear
12:53 PM 60.1 °F - 42.1 °F 51% 30.08 in 10.0 mi SSW 20.7 mph - N/A   Clear
1:53 PM 62.1 °F - 43.0 °F 50% 30.06 in 10.0 mi SSW 17.3 mph - N/A   Clear
2:53 PM 60.1 °F - 42.1 °F 51% 30.04 in 10.0 mi SSW 17.3 mph - N/A   Clear
3:53 PM 59.0 °F - 42.1 °F 53% 30.02 in 10.0 mi SSW 13.8 mph - N/A   Clear
4:53 PM 55.9 °F - 42.1 °F 60% 30.01 in 10.0 mi South 10.4 mph - N/A   Clear
5:53 PM 53.1 °F - 41.0 °F 64% 30.01 in 10.0 mi South 10.4 mph - N/A   Clear
6:53 PM 50.0 °F - 41.0 °F 71% 29.99 in 10.0 mi South 10.4 mph - N/A   Clear
7:53 PM 51.1 °F - 41.0 °F 68% 29.98 in 10.0 mi South 10.4 mph - N/A   Clear
8:53 PM 54.0 °F - 41.0 °F 62% 29.96 in 10.0 mi South 12.7 mph - N/A   Mostly Cloudy
9:53 PM 53.1 °F - 41.0 °F 64% 29.94 in 10.0 mi South 13.8 mph - N/A   Mostly Cloudy
10:53 PM 52.0 °F - 41.0 °F 66% 29.91 in 10.0 mi SSW 16.1 mph - N/A   Clear
11:53 PM 53.1 °F - 41.0 °F 64% 29.89 in 10.0 mi SSW 16.1 mph - N/A   Scattered Clouds